When you browse on this site, cookies collect data to enhance your experience and personalize the content and advertising you see.
Visit our Privacy Policy to learn more. By continuing to use the site, you agree to this use of cookies and data.
  • In Romania
  • List of Countries
  • For 7 days
  • Water Temperature
  • Weather Map
  • Weather Widgets
  • user-avatar
    Login

    Hourly Weather Sopron

    Today, 15 November, Friday

    Time Temperature Precipitation Wind Pressure Humidity
    00:00 +4°C° 0 mm 4 mps 740 mmHg 91%
    01:00 +4°C° 0 mm 4 mps 740 mmHg 92%
    02:00 +4°C° 0 mm 4 mps 740 mmHg 92%
    03:00 +3°C° 0 mm 5 mps 739 mmHg 93%
    04:00 +5°C° 0 mm 5 mps 739 mmHg 93%
    05:00 +5°C° 0 mm 5 mps 739 mmHg 93%
    06:00 +5°C° 0 mm 5 mps 739 mmHg 93%
    07:00 +5°C° 0 mm 5 mps 739 mmHg 93%
    08:00 +6°C° 0 mm 5 mps 739 mmHg 91%
    09:00 +7°C° 0 mm 5 mps 740 mmHg 88%
    10:00 +8°C° 0 mm 6 mps 740 mmHg 86%
    11:00 +9°C° 0 mm 6 mps 739 mmHg 85%
    12:00 +9°C° 0 mm 6 mps 739 mmHg 83%
    13:00 +10°C° 0 mm 6 mps 739 mmHg 81%
    14:00 +10°C° 0 mm 6 mps 739 mmHg 83%
    15:00 +10°C° 0 mm 5 mps 739 mmHg 85%
    16:00 +10°C° 0 mm 5 mps 739 mmHg 87%
    17:00 +10°C° 0 mm 5 mps 739 mmHg 87%
    18:00 +10°C° 0 mm 5 mps 739 mmHg 86%
    19:00 +10°C° 0 mm 6 mps 739 mmHg 85%
    20:00 +10°C° 0 mm 5 mps 739 mmHg 83%
    21:00 +10°C° 0 mm 5 mps 739 mmHg 82%
    22:00 +10°C° 0 mm 5 mps 739 mmHg 81%
    23:00 +10°C° 0 mm 5 mps 739 mmHg 81%

    Tomorrow, 16 November, Saturday

    Time Temperature Precipitation Wind Pressure Humidity
    00:00 +10°C° 0 mm 5 mps 739 mmHg 81%
    01:00 +9°C° 0 mm 5 mps 739 mmHg 81%
    02:00 +10°C° 0.1 mm 5 mps 739 mmHg 80%
    03:00 +10°C° 0.1 mm 6 mps 739 mmHg 80%
    04:00 +11°C° 0.1 mm 6 mps 739 mmHg 79%
    05:00 +11°C° 0 mm 7 mps 739 mmHg 81%
    06:00 +10°C° 0 mm 7 mps 740 mmHg 82%
    07:00 +10°C° 0 mm 7 mps 740 mmHg 83%
    08:00 +11°C° 0 mm 7 mps 741 mmHg 80%
    09:00 +11°C° 0 mm 7 mps 741 mmHg 77%
    10:00 +11°C° 0 mm 8 mps 742 mmHg 73%
    11:00 +12°C° 0 mm 7 mps 742 mmHg 72%
    12:00 +12°C° 0 mm 7 mps 743 mmHg 70%
    13:00 +14°C° 0 mm 7 mps 743 mmHg 68%
    14:00 +13°C° 0 mm 6 mps 743 mmHg 70%
    15:00 +11°C° 0 mm 6 mps 744 mmHg 73%
    16:00 +12°C° 0 mm 5 mps 744 mmHg 76%
    17:00 +11°C° 0 mm 4 mps 744 mmHg 78%
    18:00 +11°C° 0 mm 4 mps 744 mmHg 80%
    19:00 +10°C° 0 mm 3 mps 745 mmHg 82%
    20:00 +10°C° 0 mm 2 mps 745 mmHg 82%
    21:00 +10°C° 0 mm 2 mps 745 mmHg 83%
    22:00 +11°C° 0 mm 1 mps 745 mmHg 83%
    23:00 +11°C° 0 mm 1 mps 745 mmHg 83%

    Day after tomorrow, 17 November, Sunday

    Time Temperature Precipitation Wind Pressure Humidity
    00:00 +10°C° 0 mm 1 mps 744 mmHg 83%
    01:00 +10°C° 0 mm 1 mps 744 mmHg 83%
    02:00 +10°C° 0 mm 1 mps 744 mmHg 84%
    03:00 +9°C° 0 mm 2 mps 743 mmHg 86%
    04:00 +9°C° 0 mm 2 mps 743 mmHg 87%
    05:00 +8°C° 0 mm 2 mps 743 mmHg 89%
    06:00 +8°C° 0 mm 2 mps 743 mmHg 92%
    07:00 +8°C° 0 mm 2 mps 742 mmHg 94%
    08:00 +9°C° 0 mm 3 mps 742 mmHg 91%
    09:00 +10°C° 0 mm 3 mps 742 mmHg 88%
    10:00 +11°C° 0 mm 4 mps 742 mmHg 84%
    11:00 +12°C° 0 mm 4 mps 741 mmHg 81%
    12:00 +13°C° 0 mm 5 mps 741 mmHg 78%
    13:00 +13°C° 0 mm 5 mps 740 mmHg 75%
    14:00 +13°C° 0 mm 5 mps 740 mmHg 77%
    15:00 +13°C° 0 mm 4 mps 740 mmHg 79%
    16:00 +12°C° 0 mm 4 mps 739 mmHg 80%
    17:00 +12°C° 0 mm 4 mps 739 mmHg 81%
    18:00 +11°C° 0 mm 4 mps 739 mmHg 81%
    19:00 +11°C° 0 mm 4 mps 739 mmHg 81%
    20:00 +11°C° 0.2 mm 4 mps 739 mmHg 81%
    21:00 +11°C° 0.2 mm 4 mps 739 mmHg 81%
    22:00 +11°C° 0.2 mm 4 mps 739 mmHg 81%
    23:00 +11°C° 0.2 mm 4 mps 739 mmHg 84%

    18 November, Monday

    Time Temperature Precipitation Wind Pressure Humidity
    00:00 +11°C° 0.2 mm 4 mps 738 mmHg 87%
    01:00 +11°C° 0.2 mm 4 mps 738 mmHg 89%
    02:00 +11°C° 0.6 mm 4 mps 738 mmHg 90%
    03:00 +10°C° 0.6 mm 4 mps 738 mmHg 90%
    04:00 +10°C° 0.6 mm 4 mps 738 mmHg 91%
    05:00 +10°C° 1 mm 4 mps 737 mmHg 92%
    06:00 +10°C° 1 mm 4 mps 737 mmHg 93%
    07:00 +10°C° 1 mm 4 mps 737 mmHg 94%
    08:00 +9°C° 0.2 mm 5 mps 738 mmHg 89%
    09:00 +10°C° 0.2 mm 5 mps 738 mmHg 84%
    10:00 +10°C° 0.2 mm 6 mps 738 mmHg 80%
    11:00 +11°C° 0 mm 6 mps 739 mmHg 75%
    12:00 +11°C° 0 mm 6 mps 739 mmHg 71%
    13:00 +13°C° 0 mm 6 mps 740 mmHg 67%
    14:00 +11°C° 0 mm 6 mps 740 mmHg 69%
    15:00 +11°C° 0 mm 6 mps 740 mmHg 71%
    16:00 +10°C° 0 mm 5 mps 740 mmHg 72%
    17:00 +9°C° 0 mm 5 mps 741 mmHg 75%
    18:00 +9°C° 0 mm 5 mps 741 mmHg 78%
    19:00 +8°C° 0 mm 5 mps 742 mmHg 82%
    20:00 +7°C° 0 mm 4 mps 742 mmHg 83%
    21:00 +7°C° 0 mm 4 mps 743 mmHg 85%
    22:00 +7°C° 0 mm 3 mps 743 mmHg 87%
    23:00 +7°C° 0 mm 2 mps 743 mmHg 87%

    19 November, Tuesday

    Time Temperature Precipitation Wind Pressure Humidity
    00:00 +7°C° 0 mm 2 mps 744 mmHg 87%
    01:00 +8°C° 0 mm 1 mps 744 mmHg 87%
    02:00 +8°C° 0 mm 1 mps 744 mmHg 86%
    03:00 +8°C° 0 mm 1 mps 744 mmHg 86%
    04:00 +7°C° 0 mm 0 mps 744 mmHg 85%
    05:00 +8°C° 0.8 mm 1 mps 744 mmHg 87%
    06:00 +8°C° 0.8 mm 1 mps 744 mmHg 89%
    07:00 +8°C° 0.8 mm 1 mps 744 mmHg 91%
    08:00 +8°C° 0.7 mm 1 mps 744 mmHg 92%
    09:00 +8°C° 0.7 mm 1 mps 745 mmHg 92%
    10:00 +8°C° 0.7 mm 1 mps 745 mmHg 93%
    11:00 +8°C° 0.9 mm 1 mps 745 mmHg 93%
    12:00 +9°C° 0.9 mm 1 mps 744 mmHg 92%
    13:00 +8°C° 0.9 mm 2 mps 744 mmHg 92%
    14:00 +7°C° 1.7 mm 2 mps 744 mmHg 93%
    15:00 +7°C° 1.7 mm 3 mps 744 mmHg 93%
    16:00 +6°C° 1.7 mm 4 mps 744 mmHg 94%
    17:00 +7°C° 0.4 mm 3 mps 745 mmHg 92%
    18:00 +7°C° 0.4 mm 3 mps 745 mmHg 91%
    19:00 +7°C° 0.4 mm 3 mps 745 mmHg 89%
    20:00 +7°C° 0 mm 3 mps 746 mmHg 88%
    21:00 +7°C° 0 mm 2 mps 746 mmHg 86%
    22:00 +7°C° 0 mm 2 mps 746 mmHg 84%
    23:00 +8°C° 0 mm 1 mps 746 mmHg 84%

    20 November, Wednesday

    Time Temperature Precipitation Wind Pressure Humidity
    00:00 +8°C° 0 mm 1 mps 747 mmHg 84%
    01:00 +8°C° 0 mm 1 mps 747 mmHg 84%
    02:00 +8°C° 0 mm 1 mps 746 mmHg 84%
    03:00 +7°C° 0 mm 1 mps 746 mmHg 84%
    04:00 +7°C° 0 mm 1 mps 746 mmHg 84%
    05:00 +7°C° 0 mm 1 mps 746 mmHg 86%
    06:00 +7°C° 0 mm 1 mps 746 mmHg 88%
    07:00 +6°C° 0 mm 1 mps 746 mmHg 89%
    08:00 +6°C° 0 mm 2 mps 746 mmHg 86%
    09:00 +7°C° 0 mm 3 mps 746 mmHg 84%
    10:00 +8°C° 0 mm 3 mps 746 mmHg 81%
    11:00 +7°C° 0 mm 4 mps 746 mmHg 80%
    12:00 +7°C° 0 mm 4 mps 746 mmHg 78%
    13:00 +8°C° 0 mm 4 mps 745 mmHg 77%
    14:00 +8°C° 0 mm 4 mps 745 mmHg 78%
    15:00 +7°C° 0 mm 4 mps 745 mmHg 79%
    16:00 +7°C° 0 mm 4 mps 745 mmHg 81%
    17:00 +8°C° 0 mm 3 mps 745 mmHg 82%
    18:00 +7°C° 0 mm 3 mps 745 mmHg 84%
    19:00 +7°C° 0 mm 3 mps 745 mmHg 86%
    20:00 +7°C° 0 mm 2 mps 746 mmHg 87%
    21:00 +6°C° 0 mm 2 mps 746 mmHg 88%
    22:00 +6°C° 0 mm 2 mps 746 mmHg 89%
    23:00 +7°C° 0 mm 1 mps 746 mmHg 89%
    Show more